[[{"header":{"parameterUnit":"m.s-1","parameterCategory":1,"la1":30.2992,"la2":30.254,"lo1":-89.0895,"lo2":-89.0443,"dy":0.0025,"dx":0.0025,"nx":19,"ny":19,"refTime":"2026-03-23T09:00:00:Z","depth":0,"parameterNumber":2,"parameterNumberName":"U-component_of_WINDS"},"data":[0,0,0,-3.1545,-3.1547,-3.1638,-3.1638,-3.1767,-3.1768,0,0,0,0,0,0,0,0,0,0,0,-3.1526,-3.1527,-3.1544,-3.1547,-3.1638,-3.1638,-3.1766,-3.1768,0,0,0,0,0,0,0,0,0,0,0,-3.1525,-3.1526,-3.1528,-3.1547,-3.1638,-3.1638,-3.1766,-3.1693,0,0,0,0,0,0,0,0,0,0,-3.1602,-3.1593,-3.1526,-3.1528,-3.1548,-3.1638,-3.1638,-3.1689,-3.1697,-3.173,0,-3.1763,0,-3.1768,-3.1777,-3.1778,0,0,0,-3.1541,-3.1586,-3.1603,-3.1528,-3.1549,-3.1638,-3.1595,-3.1694,-3.1703,-3.1742,-3.1765,-3.1769,-3.177,-3.1778,-3.1779,-3.1993,-3.1994,0,0,-3.1536,-3.1546,-3.1597,-3.161,-3.1598,-3.1592,-3.1598,-3.1699,-3.1725,-3.1765,-3.1772,-3.1772,-3.1779,-3.178,-3.1992,-3.1993,0,0,0,-3.1525,-3.1543,-3.1557,-3.1605,-3.162,-3.1595,-3.1602,-3.172,-3.1724,-3.1773,-3.1773,-3.178,-3.1782,-3.199,-3.1992,-3.2068,0,0,0,-3.1522,-3.1537,-3.1556,-3.1563,-3.1619,-3.1672,-3.1621,-3.1717,-3.1728,-3.1773,-3.178,-3.1783,-3.1989,-3.1991,-3.2062,-3.2102,0,0,0,-3.1517,-3.1536,-3.1552,-3.1563,-3.1603,-3.167,-3.1679,-3.1719,-3.1729,-3.1778,-3.1783,-3.1988,-3.1991,-3.2058,-3.2094,-3.2162,0,0,0,-3.1514,-3.1617,-3.1554,-3.1668,-3.1602,-3.1716,-3.1679,-3.1762,-3.1813,-3.1781,-3.1989,-3.1992,-3.2056,-3.2089,-3.2157,-3.2222,-3.225,0,0,-3.165,-3.1634,-3.17,-3.1646,-3.1774,-3.1701,-3.1839,-3.1875,-3.1869,-3.1952,-3.1957,-3.2064,-3.2094,-3.2161,-3.2399,-3.2421,0,0,0,-3.1747,-3.1795,-3.1827,-3.1877,-3.1907,-3.1937,-3.1951,-3.1964,-3.2033,-3.1914,-3.2106,-3.2123,-3.2162,-3.2193,-3.2212,-3.2245,-3.2006,-3.2006,-3.2006,-3.1955,-3.1943,-3.2053,-3.2052,-3.21,-3.2113,-3.2152,-3.2172,-3.2144,-3.219,-3.2215,-3.2361,-3.2397,-3.2411,-3.2446,-3.2247,-3.2247,-3.2247,-3.2247,-3.2154,-3.2221,-3.2182,-3.2276,-3.2262,-3.2339,-3.2355,-3.2333,-3.2403,-3.2341,-3.2375,-3.2309,-3.2436,-3.2466,-3.2253,-3.2252,-3.2251,-3.2251,-3.225,-3.229,-3.232,-3.2335,-3.2406,-3.2461,-3.2455,-3.2524,-3.2508,-3.2494,-3.2527,-3.2552,-3.2551,-3.2549,-3.254,-3.254,-3.2541,-3.2541,-3.2542,-3.2542,-3.2427,-3.2441,-3.2502,-3.2543,-3.2572,-3.2609,-3.2623,-3.2652,-3.2679,-3.2662,-3.2662,-3.2631,-3.245,-3.2406,-3.255,-3.2548,-3.2547,-3.2547,-3.2546,-3.2636,-3.2586,-3.268,-3.271,-3.2756,-3.2813,-3.2791,-3.285,-3.2871,-3.2906,-3.2867,-3.2735,-3.2718,-3.2703,-3.2666,-3.2869,-3.2869,-3.2869,-3.2869,-3.2752,-3.2741,-3.2834,-3.2883,-3.2928,-3.2918,-3.3024,-3.3036,-3.3039,-3.3051,-3.3019,-3.2968,-3.2953,-3.2945,-3.2924,-3.289,-3.3145,-3.3145,-3.3146,-3.288,-3.2873,-3.2967,-3.2971,-3.3006,-3.3036,-3.3135,-3.3192,-3.3185,-3.3156,-3.306,-3.3049,-3.2967,-3.2941,-3.2912,-3.288,-3.2817,0,0]},{"header":{"parameterUnit":"m.s-1","parameterCategory":1,"la1":30.2992,"la2":30.254,"lo1":-89.0895,"lo2":-89.0443,"dy":0.0025,"dx":0.0025,"nx":19,"ny":19,"refTime":"2026-03-23T09:00:00:Z","depth":0,"parameterNumber":3,"parameterNumberName":"V-component_of_WINDS"},"data":[0,0,0,-4.2377,-4.2381,-4.2546,-4.2547,-4.2753,-4.2755,0,0,0,0,0,0,0,0,0,0,0,-4.2327,-4.2329,-4.2377,-4.2381,-4.2546,-4.2547,-4.2753,-4.2755,0,0,0,0,0,0,0,0,0,0,0,-4.2327,-4.2328,-4.233,-4.2382,-4.2546,-4.2547,-4.2752,-4.2629,0,0,0,0,0,0,0,0,0,0,-4.2469,-4.2422,-4.2328,-4.233,-4.2383,-4.2546,-4.2547,-4.2623,-4.2637,-4.2676,0,-4.2714,0,-4.2738,-4.2768,-4.2769,0,0,0,-4.2381,-4.2411,-4.2457,-4.233,-4.2384,-4.2546,-4.2472,-4.2631,-4.2646,-4.2694,-4.2717,-4.2724,-4.2741,-4.277,-4.2771,-4.3005,-4.3006,0,0,-4.2372,-4.2356,-4.2446,-4.2467,-4.2444,-4.2467,-4.2477,-4.264,-4.2662,-4.2717,-4.2729,-4.2744,-4.2771,-4.2773,-4.3004,-4.3005,0,0,0,-4.2346,-4.235,-4.2391,-4.2458,-4.2489,-4.2471,-4.2483,-4.2655,-4.267,-4.2731,-4.2747,-4.2772,-4.2775,-4.3003,-4.3004,-4.3043,0,0,0,-4.234,-4.2334,-4.2387,-4.2379,-4.2486,-4.2574,-4.2495,-4.2659,-4.2678,-4.2746,-4.2772,-4.2777,-4.3001,-4.3003,-4.3039,-4.3063,0,0,0,-4.2317,-4.2331,-4.2355,-4.2378,-4.2449,-4.2572,-4.2597,-4.2663,-4.2687,-4.2769,-4.2777,-4.3001,-4.3003,-4.3036,-4.3058,-4.312,0,0,0,-4.2286,-4.2386,-4.2356,-4.2473,-4.2447,-4.2595,-4.2596,-4.2707,-4.2782,-4.2773,-4.3002,-4.3004,-4.3035,-4.3055,-4.3117,-4.3169,-4.319,0,0,-4.2403,-4.24,-4.247,-4.2448,-4.2597,-4.2571,-4.2726,-4.2809,-4.2831,-4.2945,-4.2951,-4.304,-4.3058,-4.3119,-4.3312,-4.3328,0,0,0,-4.2502,-4.2552,-4.2595,-4.2667,-4.2734,-4.2793,-4.2854,-4.2885,-4.2983,-4.2887,-4.308,-4.3091,-4.3128,-4.3154,-4.3167,-4.32,-4.3015,-4.3015,-4.3015,-4.2643,-4.2667,-4.2785,-4.2828,-4.2898,-4.296,-4.3018,-4.3069,-4.3072,-4.3117,-4.3151,-4.3265,-4.3295,-4.3305,-4.3339,-4.3181,-4.3181,-4.3181,-4.3181,-4.2817,-4.2891,-4.2893,-4.3008,-4.3032,-4.3128,-4.3191,-4.319,-4.3281,-4.3241,-4.3275,-4.3229,-4.3323,-4.3353,-4.3184,-4.3184,-4.3183,-4.3183,-4.3183,-4.2912,-4.2952,-4.2989,-4.3095,-4.3173,-4.3213,-4.3301,-4.3319,-4.3336,-4.3369,-4.3406,-4.3406,-4.3407,-4.3386,-4.3386,-4.3386,-4.3387,-4.3387,-4.3387,-4.2996,-4.3037,-4.311,-4.319,-4.3238,-4.3303,-4.3366,-4.3413,-4.347,-4.3476,-4.3476,-4.3473,-4.3328,-4.3291,-4.3394,-4.3392,-4.3392,-4.3391,-4.3391,-4.3163,-4.3128,-4.3241,-4.329,-4.3384,-4.346,-4.3482,-4.3577,-4.3618,-4.366,-4.3651,-4.354,-4.3537,-4.3527,-4.3496,-4.3646,-4.3646,-4.3646,-4.3646,-4.3243,-4.3244,-4.3364,-4.344,-4.3516,-4.3547,-4.3672,-4.3722,-4.3767,-4.3793,-4.3774,-4.3735,-4.3723,-4.3727,-4.3712,-4.3684,-4.3878,-4.3878,-4.3879,-4.3347,-4.3356,-4.346,-4.3506,-4.3581,-4.3644,-4.3762,-4.3847,-4.3891,-4.3888,-4.3814,-4.3805,-4.3742,-4.372,-4.3716,-4.3692,-4.364,0,0]}]]